[[{"header":{"parameterUnit":"m.s-1","parameterCategory":2,"la1":30.2991,"la2":30.254,"lo1":-89.0895,"lo2":-89.0444,"dy":0.0017,"dx":0.0017,"nx":28,"ny":28,"refTime":"2023-11-17T03:00:00:Z","depth":"0","parameterNumber":2,"parameterNumberName":"U-component_of_CURRENTS"},"data":[0,0,0,0,0,0,0,0,0,0,0,0,0,0,0,0,0,0,0,0,0,0,0,0,0,0,0,0,0,0,0,0,0,0,0,0,0,0,0,0,0,0,0,0,0,0,0,0,0,0,0,0,0,0,0,0,0,0,-0.2722,-0.2723,0,-0.2744,-0.2744,-0.2744,-0.2683,-0.2681,-0.268,-0.2679,-0.2649,-0.265,-0.265,0,0,0,0,0,0,0,0,0,0,0,0,0,-0.2617,-0.2619,-0.2722,-0.2723,-0.2724,-0.2744,-0.2744,-0.2744,-0.2683,-0.2681,-0.268,-0.2678,-0.2649,-0.265,-0.265,0,0,0,0,0,0,0,0,0,0,0,0,0,-0.2648,-0.262,-0.2722,-0.27,-0.2698,-0.2744,-0.2744,-0.2744,-0.2683,-0.2681,-0.2679,-0.2677,-0.2649,-0.265,-0.265,-0.2698,0,0,-0.2653,-0.2653,0,0,0,0,0,0,0,0,-0.2647,-0.2652,-0.2702,-0.2702,-0.27,-0.2713,-0.2697,-0.2728,-0.2684,-0.2684,-0.2679,-0.2676,-0.2671,-0.267,-0.2672,-0.2696,-0.2695,-0.2653,-0.2653,-0.2654,-0.2654,0,0,0,0,0,0,0,-0.2645,-0.265,-0.2726,-0.2704,-0.2702,-0.2686,-0.2687,-0.2702,-0.2684,-0.2683,-0.268,-0.2692,-0.2669,-0.2671,-0.2671,-0.2695,-0.2653,-0.2654,-0.2654,-0.2654,-0.2748,-0.275,0,0,0,0,0,0,-0.2656,-0.2649,-0.2725,-0.2727,-0.2674,-0.269,-0.2691,-0.2707,-0.2685,-0.2681,-0.2694,-0.2689,-0.2671,-0.267,-0.2669,-0.273,-0.2654,-0.2654,-0.2655,-0.2746,-0.2748,-0.275,0,0,0,0,0,0,-0.2654,-0.2663,-0.2724,-0.2692,-0.2699,-0.2694,-0.2712,-0.2709,-0.2712,-0.2694,-0.2688,-0.2701,-0.2669,-0.2668,-0.2693,-0.2728,-0.2655,-0.2656,-0.2743,-0.2747,-0.2749,-0.2847,0,0,0,0,0,0,-0.2651,-0.2662,-0.2675,-0.2693,-0.2702,-0.2783,-0.2715,-0.2711,-0.2725,-0.2719,-0.2699,-0.2694,-0.2667,-0.2692,-0.2694,-0.2727,-0.2656,-0.2741,-0.2745,-0.2748,-0.2841,-0.2853,-0.2863,0,0,0,0,0,-0.2647,-0.2696,-0.2676,-0.2685,-0.2721,-0.2786,-0.279,-0.2774,-0.2728,-0.276,-0.2729,-0.2694,-0.2716,-0.2695,-0.2696,-0.2731,-0.2739,-0.2744,-0.2748,-0.2837,-0.2851,-0.2863,0,0,0,0,0,0,-0.2662,-0.2695,-0.2673,-0.2728,-0.2762,-0.2778,-0.2807,-0.2787,-0.2788,-0.2768,-0.2727,-0.2723,-0.2755,-0.2737,-0.2714,-0.2769,-0.272,-0.2725,-0.2787,-0.28,-0.2811,-0.2823,-0.2657,0,0,0,0,0,-0.2671,-0.2711,-0.2738,-0.2783,-0.2801,-0.2799,-0.2817,-0.281,-0.2816,-0.2813,-0.2798,-0.2779,-0.2779,-0.2783,-0.2785,-0.2826,-0.2774,-0.2847,-0.2858,-0.2867,-0.2878,-0.283,-0.2837,-0.2765,-0.2765,-0.2765,0,0,-0.2694,-0.2713,-0.2737,-0.2788,-0.2802,-0.2856,-0.2805,-0.2852,-0.2886,-0.2813,-0.285,-0.2823,-0.2798,-0.2835,-0.2847,-0.2822,-0.286,-0.2873,-0.2881,-0.2887,-0.2835,-0.2842,-0.2848,-0.2768,-0.2768,-0.2767,0,0,-0.2771,-0.2772,-0.2831,-0.2867,-0.2906,-0.2908,-0.2926,-0.2951,-0.295,-0.2991,-0.2933,-0.2929,-0.2945,-0.2928,-0.2919,-0.2998,-0.2919,-0.2997,-0.3064,-0.3017,-0.3022,-0.3026,-0.2961,-0.2959,-0.3002,-0.3003,-0.3003,0,-0.2786,-0.2853,-0.2863,-0.293,-0.2955,-0.2936,-0.2998,-0.3018,-0.3044,-0.3041,-0.302,-0.3004,-0.2991,-0.3002,-0.3031,-0.3023,-0.2971,-0.3013,-0.3029,-0.3032,-0.3034,-0.2967,-0.2963,-0.3008,-0.3007,-0.3007,-0.3006,0,-0.291,-0.2953,-0.2998,-0.3057,-0.3096,-0.315,-0.3172,-0.3197,-0.3176,-0.3172,-0.3181,-0.3154,-0.3134,-0.3136,-0.3114,-0.3126,-0.3075,-0.3045,-0.2991,-0.3046,-0.2973,-0.2967,-0.3015,-0.3014,-0.3012,-0.3011,0,0,-0.2937,-0.3057,-0.3063,-0.3085,-0.3154,-0.3185,-0.3256,-0.3291,-0.3294,-0.3313,-0.331,-0.3324,-0.3274,-0.3262,-0.322,-0.3195,-0.3171,-0.3139,-0.3134,-0.3068,-0.3048,-0.2968,-0.2952,-0.3134,-0.3134,-0.3134,-0.2987,0,-0.3006,-0.3132,-0.3177,-0.3261,-0.3308,-0.3317,-0.3374,-0.3399,-0.3396,-0.3398,-0.3361,-0.3347,-0.3332,-0.3301,-0.3285,-0.3186,-0.3161,-0.3213,-0.3012,-0.3006,-0.2922,-0.2945,-0.2851,-0.2708,-0.298,-0.2979,-0.2978,0,-0.308,-0.3147,-0.326,-0.3313,-0.3333,-0.3383,-0.3404,-0.3452,-0.3465,-0.3464,-0.3451,-0.3407,-0.3379,-0.3349,-0.3235,-0.3262,-0.3182,-0.311,-0.3101,-0.299,-0.2915,-0.27,-0.2685,-0.2664,-0.2967,-0.2968,-0.2969,0,-0.3053,-0.317,-0.3245,-0.3278,-0.3373,-0.3398,-0.3422,-0.3458,-0.346,-0.3482,-0.3453,-0.3438,-0.337,-0.3305,-0.3181,-0.3198,-0.3027,-0.302,-0.2876,-0.2867,-0.273,-0.2711,-0.2665,-0.2953,-0.2953,-0.2954,-0.2954,0,-0.3084,-0.3127,-0.323,-0.3278,-0.3309,-0.3377,-0.3397,-0.3432,-0.3449,-0.3406,-0.3458,-0.3392,-0.3352,-0.3248,-0.3174,-0.299,-0.3015,-0.2888,-0.2829,-0.2762,-0.2748,-0.2676,-0.2705,-0.2948,-0.2949,-0.295,-0.2951,0,-0.3055,-0.3134,-0.3203,-0.33,-0.3309,-0.3324,-0.3353,-0.3342,-0.3393,-0.3332,-0.3325,-0.332,-0.3198,-0.3139,-0.2996,-0.293,-0.274,-0.2731,-0.2652,-0.2588,-0.2453,-0.2491,-0.2372,-0.23,-0.2552,-0.2549,-0.2547,0,-0.3046,-0.3109,-0.3197,-0.3186,-0.3226,-0.3248,-0.3234,-0.33,-0.3256,-0.3244,-0.3165,-0.3104,-0.3004,-0.2816,-0.2714,-0.2576,-0.2591,-0.2412,-0.2451,-0.2435,-0.2433,-0.2466,-0.2418,-0.2297,-0.2293,-0.2289,-0.2287,0,-0.3032,-0.3082,-0.3126,-0.3101,-0.3083,-0.3071,-0.3042,-0.301,-0.3028,-0.3002,-0.2905,-0.2855,-0.2721,-0.256,-0.2433,-0.2342,-0.2369,-0.2336,-0.2334,-0.2252,-0.2267,-0.2171,-0.2404,-0.2256,-0.2259,-0.2261,-0.2263,-0.2264,-0.2968,-0.2977,-0.2999,-0.2946,-0.2915,-0.2817,-0.2734,-0.2712,-0.2638,-0.2524,-0.2596,-0.2505,-0.2455,-0.2276,-0.218,-0.2034,-0.2109,-0.1989,-0.2037,-0.2072,-0.2014,-0.2183,-0.1968,-0.1969,-0.197,-0.1971,-0.1972,0,-0.286,-0.285,-0.281,-0.271,-0.2575,-0.2624,-0.2518,-0.2402,-0.225,-0.2264,-0.2198,-0.2181,-0.204,-0.201,-0.1881,-0.1781,-0.1744,-0.1744,-0.1784,-0.1748,-0.1885,-0.1886,-0.1627,-0.1627,-0.1627,-0.1627,-0.1627,-0.1627,-0.277,-0.2695,-0.2658,-0.2355,-0.2276,-0.2043,-0.1946,-0.1855,-0.1822,-0.1739,-0.1766,-0.1838,-0.1848,-0.1946,-0.1795,-0.1691,-0.1657,-0.1597,-0.162,-0.1756,-0.1784,-0.1811,-0.1818,-0.1549,-0.1549,-0.1417,-0.1416,-0.1416]},{"header":{"parameterUnit":"m.s-1","parameterCategory":2,"la1":30.2991,"la2":30.254,"lo1":-89.0895,"lo2":-89.0444,"dy":0.0017,"dx":0.0017,"nx":28,"ny":28,"refTime":"2023-11-17T03:00:00:Z","depth":"0","parameterNumber":3,"parameterNumberName":"V-component_of_CURRENTS"},"data":[0,0,0,0,0,0,0,0,0,0,0,0,0,0,0,0,0,0,0,0,0,0,0,0,0,0,0,0,0,0,0,0,0,0,0,0,0,0,0,0,0,0,0,0,0,0,0,0,0,0,0,0,0,0,0,0,0,0,-0.0627,-0.0626,0,-0.0497,-0.0495,-0.0493,-0.0395,-0.0394,-0.0393,-0.0393,-0.0224,-0.0221,-0.0217,0,0,0,0,0,0,0,0,0,0,0,0,0,-0.0753,-0.0751,-0.0628,-0.0626,-0.0625,-0.0497,-0.0495,-0.0493,-0.0395,-0.0394,-0.0393,-0.0393,-0.0226,-0.0221,-0.0216,0,0,0,0,0,0,0,0,0,0,0,0,0,-0.0666,-0.0751,-0.0628,-0.0562,-0.0555,-0.0497,-0.0495,-0.0492,-0.0395,-0.0394,-0.0393,-0.0392,-0.0227,-0.0222,-0.0216,-0.0199,0,0,-0.0198,-0.0195,0,0,0,0,0,0,0,0,-0.0671,-0.0661,-0.0573,-0.0567,-0.0559,-0.0463,-0.0477,-0.0393,-0.0395,-0.0453,-0.0393,-0.0392,-0.0303,-0.0291,-0.0265,-0.0191,-0.0184,-0.0197,-0.0194,-0.0191,-0.019,0,0,0,0,0,0,0,-0.0677,-0.0666,-0.0573,-0.0572,-0.0563,-0.0526,-0.0513,-0.0461,-0.0383,-0.0448,-0.0441,-0.0431,-0.0299,-0.0271,-0.0261,-0.0182,-0.0198,-0.0192,-0.0189,-0.0187,-0.0053,-0.0053,0,0,0,0,0,0,-0.0701,-0.0672,-0.0577,-0.0569,-0.0617,-0.0525,-0.051,-0.0493,-0.0384,-0.0367,-0.0432,-0.0427,-0.0282,-0.0268,-0.0254,-0.0225,-0.0192,-0.0186,-0.0183,-0.0053,-0.0053,-0.0053,0,0,0,0,0,0,-0.0704,-0.0694,-0.0583,-0.062,-0.0604,-0.0525,-0.0506,-0.0491,-0.0466,-0.0373,-0.0354,-0.0423,-0.028,-0.0263,-0.0208,-0.0218,-0.0183,-0.0178,-0.0053,-0.0053,-0.0053,-0.017,0,0,0,0,0,0,-0.0708,-0.0696,-0.0701,-0.0622,-0.0602,-0.0565,-0.0507,-0.0489,-0.0462,-0.0454,-0.0359,-0.0342,-0.0278,-0.0217,-0.0202,-0.021,-0.0174,-0.0053,-0.0053,-0.0053,-0.0166,-0.0173,-0.018,0,0,0,0,0,-0.0713,-0.0733,-0.0702,-0.0691,-0.0609,-0.0566,-0.0553,-0.0491,-0.0463,-0.0463,-0.039,-0.0345,-0.0206,-0.0213,-0.0195,-0.0201,-0.0053,-0.0053,-0.0053,-0.0163,-0.0172,-0.018,0,0,0,0,0,0,-0.0794,-0.0723,-0.0687,-0.0684,-0.0634,-0.0551,-0.0553,-0.0504,-0.0446,-0.0441,-0.0346,-0.0324,-0.0276,-0.0224,-0.0234,-0.016,-0.0122,-0.0118,-0.0211,-0.0219,-0.0226,-0.0241,-0.0169,0,0,0,0,0,-0.0814,-0.0819,-0.073,-0.074,-0.0712,-0.0633,-0.0611,-0.0567,-0.0503,-0.0476,-0.0404,-0.0328,-0.0262,-0.0231,-0.0165,-0.0133,-0.0065,-0.0123,-0.013,-0.0137,-0.0136,-0.0039,-0.0038,-0.0053,-0.0053,-0.0053,0,0,-0.0867,-0.0818,-0.0831,-0.0759,-0.0715,-0.0683,-0.0618,-0.0597,-0.0572,-0.0469,-0.0423,-0.0351,-0.0257,-0.0212,-0.0187,-0.0172,-0.0099,-0.0137,-0.0143,-0.0138,-0.0039,-0.0037,-0.0036,-0.0052,-0.0053,-0.0053,0,0,-0.0956,-0.091,-0.093,-0.0881,-0.0814,-0.0751,-0.0749,-0.0661,-0.0623,-0.0572,-0.0486,-0.0424,-0.0329,-0.0261,-0.0215,-0.0224,-0.0137,-0.0203,-0.0256,-0.0163,-0.0162,-0.0159,-0.0086,-0.0076,-0.0211,-0.0212,-0.0212,0,-0.1013,-0.0999,-0.0935,-0.0915,-0.088,-0.0784,-0.0774,-0.0725,-0.0634,-0.0601,-0.0576,-0.0415,-0.035,-0.0273,-0.0277,-0.0242,-0.0175,-0.0237,-0.0174,-0.017,-0.0165,-0.0091,-0.0078,-0.0217,-0.0217,-0.0216,-0.0215,0,-0.1097,-0.107,-0.1077,-0.101,-0.0971,-0.0954,-0.0858,-0.0822,-0.076,-0.0693,-0.0611,-0.0511,-0.0413,-0.0388,-0.0337,-0.0272,-0.0232,-0.0194,-0.016,-0.0171,-0.0092,-0.0077,-0.0225,-0.0223,-0.0222,-0.022,0,0,-0.1235,-0.1152,-0.1145,-0.111,-0.1009,-0.0979,-0.0944,-0.0864,-0.0829,-0.0746,-0.0684,-0.0587,-0.0522,-0.0465,-0.0386,-0.0315,-0.0243,-0.0254,-0.0246,-0.0195,-0.0043,0.0011,0.0034,-0.0189,-0.0187,-0.0185,-0.0007,0,-0.1301,-0.1289,-0.122,-0.1194,-0.1167,-0.106,-0.1027,-0.0951,-0.087,-0.0789,-0.0683,-0.0595,-0.0553,-0.0501,-0.0428,-0.0269,-0.0205,-0.0295,-0.0026,-0.0019,0.0021,0.0053,0.0099,0.0265,0.0009,0.0011,0.0013,0,-0.1383,-0.1347,-0.1351,-0.1247,-0.1225,-0.12,-0.1103,-0.1057,-0.0933,-0.0877,-0.0778,-0.0665,-0.0544,-0.0505,-0.0274,-0.0329,-0.0207,-0.0096,-0.0086,0.0019,0.0065,0.0242,0.0304,0.0472,0.0038,0.0036,0.0034,0,-0.1506,-0.1423,-0.1428,-0.1398,-0.1289,-0.127,-0.1202,-0.1095,-0.1042,-0.092,-0.0854,-0.0701,-0.059,-0.0427,-0.0211,-0.023,0.0056,0.0064,0.0223,0.0228,0.0349,0.0361,0.0598,0.0218,0.0217,0.0217,0.0216,0,-0.1598,-0.1585,-0.1483,-0.1491,-0.1463,-0.1357,-0.1325,-0.1246,-0.1124,-0.1041,-0.0903,-0.0792,-0.056,-0.036,-0.0201,0.0068,0.0067,0.0229,0.0288,0.0308,0.0314,0.0531,0.0583,0.0223,0.0222,0.0221,0.022,0,-0.1747,-0.1688,-0.1666,-0.1564,-0.1535,-0.1516,-0.1393,-0.1346,-0.1237,-0.1117,-0.107,-0.083,-0.0568,-0.0331,-0.003,0.0103,0.0457,0.0422,0.0418,0.0472,0.0756,0.0797,0.1095,0.121,0.0628,0.0631,0.0633,0,-0.182,-0.1849,-0.1754,-0.1719,-0.1674,-0.1621,-0.1573,-0.1443,-0.1362,-0.1127,-0.1049,-0.0773,-0.0556,-0.011,0.0183,0.0491,0.06,0.0695,0.0661,0.0799,0.0889,0.091,0.0986,0.0774,0.0778,0.078,0.0782,0,-0.1958,-0.1939,-0.1903,-0.1837,-0.178,-0.1712,-0.1611,-0.1568,-0.1381,-0.1255,-0.101,-0.0817,-0.0363,0.0037,0.0431,0.06,0.0829,0.0756,0.0926,0.1049,0.1067,0.1196,0.0609,0.0805,0.0803,0.0801,0.08,0.0799,-0.2039,-0.2037,-0.1984,-0.1901,-0.1837,-0.1748,-0.169,-0.1561,-0.1427,-0.1166,-0.0989,-0.0663,-0.0095,0.0484,0.0693,0.1121,0.1053,0.1224,0.127,0.1285,0.1383,0.0828,0.1068,0.1067,0.1066,0.1066,0.1065,0,-0.2123,-0.2089,-0.2029,-0.1906,-0.1824,-0.1778,-0.1658,-0.1563,-0.1395,-0.1139,-0.0889,-0.0248,0.0296,0.0787,0.1399,0.1623,0.1667,0.1711,0.1764,0.1824,0.1377,0.1369,0.1653,0.1653,0.1653,0.1652,0.1652,0.1652,-0.2146,-0.2122,-0.2054,-0.1891,-0.1807,-0.1681,-0.1609,-0.1474,-0.128,-0.0864,-0.0491,-0.0191,0.0507,0.1491,0.2037,0.2073,0.2269,0.2233,0.2342,0.2026,0.1983,0.1943,0.195,0.2352,0.2353,0.2786,0.279,0.2793]}],[{"header":{"parameterUnit":"m.s-1","parameterCategory":2,"la1":30.2991,"la2":30.254,"lo1":-89.0895,"lo2":-89.0444,"dy":0.0017,"dx":0.0017,"nx":28,"ny":28,"refTime":"2023-11-17T03:00:00:Z","depth":"2","parameterNumber":2,"parameterNumberName":"U-component_of_CURRENTS"},"data":[0,0,0,0,0,0,0,0,0,0,0,0,0,0,0,0,0,0,0,0,0,0,0,0,0,0,0,0,0,0,0,0,0,0,0,0,0,0,0,0,0,0,0,0,0,0,0,0,0,0,0,0,0,0,0,0,0,0,-0.2126,-0.2126,0,-0.2169,-0.2169,-0.217,-0.2152,-0.2151,-0.2151,-0.215,-0.2145,-0.2146,-0.2146,0,0,0,0,0,0,0,0,0,0,0,0,0,-0.2037,-0.2039,-0.2125,-0.2126,-0.2127,-0.2169,-0.2169,-0.217,-0.2153,-0.2151,-0.215,-0.2149,-0.2145,-0.2146,-0.2146,0,0,0,0,0,0,0,0,0,0,0,0,0,-0.2076,-0.2039,-0.2125,-0.2124,-0.2125,-0.2169,-0.2169,-0.217,-0.2153,-0.2151,-0.215,-0.2149,-0.2145,-0.2146,-0.2147,-0.218,0,0,-0.215,-0.215,0,0,0,0,0,0,0,0,-0.2074,-0.2079,-0.2124,-0.2125,-0.2125,-0.2155,-0.2137,-0.2171,-0.2153,-0.2141,-0.215,-0.2148,-0.2146,-0.2147,-0.2157,-0.2179,-0.2179,-0.215,-0.2151,-0.2151,-0.2151,0,0,0,0,0,0,0,-0.2071,-0.2077,-0.2141,-0.2125,-0.2126,-0.2125,-0.2129,-0.2143,-0.2148,-0.2142,-0.2141,-0.2148,-0.2145,-0.2156,-0.2156,-0.2179,-0.215,-0.2151,-0.2151,-0.2152,-0.2233,-0.2235,0,0,0,0,0,0,-0.207,-0.2075,-0.214,-0.2143,-0.2097,-0.2128,-0.2132,-0.2146,-0.2149,-0.2149,-0.215,-0.2147,-0.2154,-0.2155,-0.2156,-0.2208,-0.2151,-0.2152,-0.2153,-0.2232,-0.2233,-0.2235,0,0,0,0,0,0,-0.2068,-0.2076,-0.2138,-0.211,-0.2118,-0.2131,-0.2146,-0.2147,-0.2156,-0.2156,-0.2154,-0.2157,-0.2153,-0.2154,-0.2179,-0.2207,-0.2152,-0.2153,-0.223,-0.2232,-0.2234,-0.2305,0,0,0,0,0,0,-0.2066,-0.2075,-0.2085,-0.2111,-0.212,-0.2177,-0.2148,-0.2149,-0.2164,-0.2161,-0.2162,-0.216,-0.2152,-0.2178,-0.2181,-0.2208,-0.2154,-0.2228,-0.2231,-0.2234,-0.2301,-0.2309,-0.2317,0,0,0,0,0,-0.2062,-0.2084,-0.2086,-0.2093,-0.2133,-0.2178,-0.2184,-0.2186,-0.2165,-0.2185,-0.2182,-0.216,-0.2197,-0.2181,-0.2183,-0.2211,-0.2226,-0.223,-0.2233,-0.2297,-0.2308,-0.2317,0,0,0,0,0,0,-0.2054,-0.2086,-0.2087,-0.2118,-0.2151,-0.2176,-0.2193,-0.2192,-0.2206,-0.2199,-0.2185,-0.2185,-0.2217,-0.2207,-0.2189,-0.2243,-0.2207,-0.2211,-0.2254,-0.2264,-0.2272,-0.227,-0.2155,0,0,0,0,0,-0.2058,-0.2075,-0.2114,-0.2136,-0.2157,-0.2175,-0.2191,-0.2198,-0.2214,-0.2218,-0.222,-0.2221,-0.2236,-0.2243,-0.2254,-0.2288,-0.2266,-0.2306,-0.2314,-0.2321,-0.2322,-0.2323,-0.2331,-0.2246,-0.2246,-0.2246,0,0,-0.2052,-0.2078,-0.2083,-0.2135,-0.2156,-0.2198,-0.2181,-0.2216,-0.2249,-0.2217,-0.2255,-0.2252,-0.2251,-0.2289,-0.2302,-0.2283,-0.2334,-0.2325,-0.2331,-0.2328,-0.2328,-0.2336,-0.2343,-0.2249,-0.2248,-0.2248,0,0,-0.2074,-0.2085,-0.2119,-0.2147,-0.2194,-0.2215,-0.2227,-0.2265,-0.2282,-0.2324,-0.2306,-0.2323,-0.2344,-0.2354,-0.2359,-0.242,-0.2377,-0.2418,-0.2459,-0.2461,-0.2468,-0.2473,-0.2454,-0.2457,-0.2422,-0.2422,-0.2422,0,-0.2076,-0.2111,-0.2136,-0.2181,-0.2206,-0.2224,-0.2272,-0.2301,-0.2339,-0.2358,-0.2344,-0.2377,-0.2379,-0.2418,-0.2438,-0.2439,-0.2419,-0.2422,-0.2471,-0.2476,-0.248,-0.2459,-0.2462,-0.2426,-0.2425,-0.2425,-0.2425,0,-0.2112,-0.2149,-0.2172,-0.223,-0.2274,-0.2306,-0.2361,-0.2393,-0.2407,-0.2428,-0.2471,-0.2477,-0.2489,-0.2499,-0.2488,-0.2525,-0.2493,-0.248,-0.2444,-0.2493,-0.2467,-0.2469,-0.2431,-0.243,-0.2429,-0.2428,0,0,-0.2093,-0.2181,-0.2187,-0.223,-0.2294,-0.2341,-0.2401,-0.2465,-0.2491,-0.2527,-0.2562,-0.2596,-0.2581,-0.2585,-0.2575,-0.2581,-0.26,-0.2545,-0.2543,-0.2521,-0.2585,-0.2495,-0.2487,-0.259,-0.2591,-0.2592,-0.2553,0,-0.2112,-0.2199,-0.2242,-0.2324,-0.2373,-0.2414,-0.2466,-0.2525,-0.2558,-0.2595,-0.2612,-0.2638,-0.262,-0.2621,-0.263,-0.2607,-0.2608,-0.2611,-0.2544,-0.2542,-0.2452,-0.2488,-0.2312,-0.2257,-0.2554,-0.2554,-0.2554,0,-0.2123,-0.2185,-0.227,-0.2373,-0.24,-0.244,-0.252,-0.2579,-0.2631,-0.2653,-0.2678,-0.2682,-0.2707,-0.2679,-0.2668,-0.2666,-0.2632,-0.261,-0.2608,-0.2499,-0.2455,-0.2257,-0.2248,-0.2556,-0.2556,-0.2556,-0.2556,0,-0.2089,-0.2203,-0.2272,-0.2299,-0.2416,-0.2451,-0.2504,-0.2573,-0.262,-0.2679,-0.2694,-0.2726,-0.2726,-0.271,-0.2667,-0.2667,-0.2634,-0.263,-0.2518,-0.251,-0.2334,-0.231,-0.262,-0.262,-0.262,-0.262,-0.262,0,-0.2073,-0.2126,-0.225,-0.2279,-0.2345,-0.2441,-0.2499,-0.2549,-0.2614,-0.265,-0.2709,-0.2716,-0.2731,-0.2714,-0.2678,-0.2591,-0.2641,-0.2524,-0.2498,-0.2353,-0.2332,-0.257,-0.2565,-0.2618,-0.2619,-0.2619,-0.2619,0,-0.2009,-0.209,-0.2165,-0.2286,-0.2326,-0.2363,-0.247,-0.25,-0.258,-0.2623,-0.2641,-0.2702,-0.2679,-0.2673,-0.2637,-0.2585,-0.2528,-0.2482,-0.2301,-0.2254,-0.2401,-0.24,-0.2364,-0.2361,-0.2358,-0.2355,-0.2353,0,-0.197,-0.2016,-0.2145,-0.2174,-0.2215,-0.2293,-0.2331,-0.2445,-0.2478,-0.2593,-0.2591,-0.2618,-0.2587,-0.2515,-0.2437,-0.2354,-0.2435,-0.215,-0.213,-0.2398,-0.2377,-0.238,-0.2383,-0.1923,-0.1918,-0.1914,-0.191,0,-0.1897,-0.1949,-0.2013,-0.2074,-0.2116,-0.2182,-0.2245,-0.2273,-0.2402,-0.243,-0.2456,-0.2453,-0.2407,-0.2244,-0.2157,-0.2091,-0.2155,-0.2057,-0.2379,-0.2019,-0.198,-0.196,-0.1978,-0.1871,-0.1875,-0.1878,-0.188,-0.1881,-0.1817,-0.1832,-0.1915,-0.1958,-0.2013,-0.204,-0.203,-0.2104,-0.2135,-0.2148,-0.2241,-0.2166,-0.2162,-0.1931,-0.1825,-0.1747,-0.1896,-0.1817,-0.1832,-0.1851,-0.181,-0.1769,-0.1611,-0.1614,-0.1616,-0.1617,-0.1619,0,-0.1711,-0.1748,-0.1794,-0.1833,-0.1831,-0.1907,-0.195,-0.1908,-0.1874,-0.1906,-0.1886,-0.1714,-0.1602,-0.1602,-0.1417,-0.138,-0.1376,-0.1326,-0.1327,-0.1367,-0.1402,-0.134,-0.1015,-0.1013,-0.1012,-0.101,0,0,-0.1676,-0.165,-0.1683,-0.1641,-0.1666,-0.161,-0.1598,-0.1552,-0.1539,-0.1456,-0.1409,-0.1505,-0.1555,-0.1287,-0.1224,-0.1086,-0.1213,-0.1032,-0.1517,-0.1558,-0.159,-0.1686,-0.1635,0,0,0,0,0]},{"header":{"parameterUnit":"m.s-1","parameterCategory":2,"la1":30.2991,"la2":30.254,"lo1":-89.0895,"lo2":-89.0444,"dy":0.0017,"dx":0.0017,"nx":28,"ny":28,"refTime":"2023-11-17T03:00:00:Z","depth":"2","parameterNumber":3,"parameterNumberName":"V-component_of_CURRENTS"},"data":[0,0,0,0,0,0,0,0,0,0,0,0,0,0,0,0,0,0,0,0,0,0,0,0,0,0,0,0,0,0,0,0,0,0,0,0,0,0,0,0,0,0,0,0,0,0,0,0,0,0,0,0,0,0,0,0,0,0,-0.0191,-0.019,0,-0.0123,-0.0122,-0.0121,-0.0076,-0.0076,-0.0076,-0.0075,0.0039,0.0042,0.0045,0,0,0,0,0,0,0,0,0,0,0,0,0,-0.0225,-0.0225,-0.0191,-0.019,-0.0189,-0.0123,-0.0122,-0.0121,-0.0076,-0.0076,-0.0076,-0.0075,0.0038,0.0042,0.0045,0,0,0,0,0,0,0,0,0,0,0,0,0,-0.0189,-0.0225,-0.0191,-0.0159,-0.0156,-0.0123,-0.0122,-0.0121,-0.0076,-0.0076,-0.0076,-0.0075,0.0037,0.0041,0.0046,0.0064,0,0,0.0058,0.006,0,0,0,0,0,0,0,0,-0.0191,-0.0188,-0.0165,-0.0162,-0.0158,-0.0108,-0.0092,-0.0057,-0.0076,-0.0106,-0.0075,-0.0075,-0.0006,0.0002,0.0013,0.0069,0.0074,0.0059,0.0061,0.0063,0.0064,0,0,0,0,0,0,0,-0.0194,-0.019,-0.0164,-0.0164,-0.016,-0.0129,-0.0124,-0.0085,-0.0058,-0.0104,-0.01,-0.0093,-0.0004,0.0009,0.0017,0.0076,0.0059,0.0062,0.0065,0.0067,0.0166,0.0166,0,0,0,0,0,0,-0.0206,-0.0193,-0.0166,-0.0162,-0.0174,-0.0129,-0.0123,-0.0124,-0.0059,-0.005,-0.0094,-0.0091,0.0002,0.0012,0.0021,0.0049,0.0063,0.0067,0.0069,0.0166,0.0166,0.0166,0,0,0,0,0,0,-0.0208,-0.0205,-0.0169,-0.0175,-0.0169,-0.0129,-0.013,-0.0123,-0.0111,-0.0053,-0.0042,-0.0089,0.0003,0.0015,0.0052,0.0053,0.0069,0.0073,0.0166,0.0166,0.0166,0.0103,0,0,0,0,0,0,-0.0209,-0.0206,-0.0211,-0.0177,-0.0169,-0.0159,-0.013,-0.0122,-0.0107,-0.0103,-0.0045,-0.0034,0.0004,0.0046,0.0056,0.006,0.0076,0.0166,0.0166,0.0166,0.0105,0.0101,0.0098,0,0,0,0,0,-0.0211,-0.022,-0.0212,-0.0208,-0.0177,-0.016,-0.0153,-0.0122,-0.0107,-0.0109,-0.0066,-0.0036,0.0055,0.0049,0.0062,0.0066,0.0166,0.0166,0.0166,0.0107,0.0102,0.0098,0,0,0,0,0,0,-0.0237,-0.0216,-0.0206,-0.0209,-0.019,-0.0152,-0.0149,-0.0128,-0.0096,-0.0091,-0.0035,-0.0021,0.0011,0.0048,0.004,0.0096,0.0116,0.0119,0.0066,0.0062,0.0059,0.0045,0.008,0,0,0,0,0,-0.0247,-0.0247,-0.0223,-0.0224,-0.0221,-0.0187,-0.0175,-0.0157,-0.0124,-0.0109,-0.0067,-0.0019,0.0022,0.0048,0.0086,0.0118,0.0157,0.013,0.0126,0.0123,0.0121,0.0178,0.0179,0.0167,0.0167,0.0167,0,0,-0.0251,-0.0243,-0.0239,-0.0229,-0.0213,-0.0214,-0.0179,-0.017,-0.0162,-0.0101,-0.0077,-0.0034,0.0027,0.0059,0.0078,0.0091,0.0147,0.0123,0.0119,0.012,0.0178,0.018,0.0181,0.0167,0.0167,0.0167,0,0,-0.0277,-0.0262,-0.028,-0.0269,-0.0256,-0.0234,-0.0236,-0.0205,-0.0186,-0.0159,-0.0112,-0.0069,-0.0008,0.0037,0.0068,0.007,0.0121,0.0082,0.0059,0.0114,0.0115,0.0117,0.0165,0.0171,0.0085,0.0085,0.0085,0,-0.0289,-0.0306,-0.028,-0.0298,-0.0294,-0.0249,-0.0269,-0.0238,-0.0196,-0.0177,-0.0162,-0.0064,-0.0017,0.0036,0.0037,0.0061,0.0098,0.0068,0.0108,0.0111,0.0114,0.0163,0.017,0.0082,0.0082,0.0083,0.0083,0,-0.0325,-0.0341,-0.035,-0.0357,-0.035,-0.0353,-0.0319,-0.03,-0.0269,-0.0233,-0.0181,-0.0113,-0.0054,-0.003,0.0005,0.0051,0.0071,0.0091,0.0115,0.0111,0.0163,0.0172,0.0078,0.0079,0.008,0.0081,0,0,-0.0346,-0.0374,-0.0377,-0.0406,-0.0382,-0.039,-0.0367,-0.0341,-0.0325,-0.0268,-0.024,-0.016,-0.0118,-0.008,-0.0024,0.0028,0.0079,0.0063,0.0068,0.0103,0.0197,0.0233,0.0247,0.0105,0.0106,0.0107,0.0223,0,-0.0385,-0.0455,-0.0438,-0.0484,-0.0519,-0.0467,-0.0452,-0.0415,-0.0365,-0.0322,-0.0235,-0.0189,-0.0137,-0.011,-0.0049,0.0048,0.0101,0.0045,0.0203,0.0208,0.0234,0.0258,0.0219,0.0321,0.0233,0.0235,0.0236,0,-0.0427,-0.0473,-0.0544,-0.0575,-0.0581,-0.0581,-0.0554,-0.0538,-0.0449,-0.0406,-0.0331,-0.026,-0.0166,-0.013,0.0037,-0.0001,0.0088,0.0164,0.017,0.0233,0.0262,0.0314,0.0342,0.0252,0.0251,0.025,0.0248,0,-0.0493,-0.0543,-0.0614,-0.0621,-0.0639,-0.064,-0.0628,-0.0561,-0.0548,-0.0458,-0.0426,-0.0303,-0.0241,-0.0111,0.0053,0.0044,0.0236,0.0246,0.0363,0.0367,0.038,0.0382,0.0355,0.0355,0.0355,0.0355,0.0354,0,-0.0552,-0.0603,-0.0649,-0.069,-0.0741,-0.0718,-0.0733,-0.0691,-0.0626,-0.0603,-0.0481,-0.0419,-0.0233,-0.0097,0.0043,0.0241,0.0234,0.0368,0.0405,0.0357,0.0356,0.0332,0.0328,0.0359,0.0358,0.0357,0.0356,0,-0.0619,-0.065,-0.0734,-0.0774,-0.0785,-0.082,-0.0814,-0.0812,-0.0738,-0.0699,-0.0674,-0.0502,-0.0312,-0.0119,0.0107,0.0229,0.0409,0.0475,0.0406,0.0432,0.0502,0.0493,0.0618,0.062,0.0622,0.0624,0.0625,0,-0.0652,-0.072,-0.0812,-0.0857,-0.0874,-0.0912,-0.0929,-0.0878,-0.0864,-0.0739,-0.0719,-0.0529,-0.0371,-0.0022,0.0222,0.0478,0.0472,0.058,0.0561,0.0509,0.0532,0.052,0.0508,0.0552,0.0552,0.0553,0.0553,0,-0.0727,-0.0773,-0.0849,-0.0952,-0.0994,-0.1036,-0.1045,-0.1047,-0.097,-0.0902,-0.0759,-0.0621,-0.0277,0.0019,0.0344,0.0481,0.0536,0.06,0.058,0.0488,0.0455,0.0475,0.0464,0.0558,0.0558,0.0557,0.0557,0.0557,-0.0766,-0.0848,-0.096,-0.1044,-0.1097,-0.113,-0.1141,-0.1113,-0.1073,-0.0927,-0.0796,-0.0552,-0.0273,0.0205,0.0432,0.0629,0.0625,0.0668,0.0663,0.0657,0.0626,0.0598,0.0722,0.0722,0.0723,0.0723,0.0723,0,-0.0815,-0.0927,-0.1036,-0.1134,-0.1189,-0.1194,-0.12,-0.1163,-0.1089,-0.0919,-0.0743,-0.042,-0.009,0.0191,0.0521,0.0718,0.0683,0.0731,0.0651,0.0645,0.064,0.0605,0.0697,0.0698,0.0698,0.0699,0,0,-0.0854,-0.0993,-0.1073,-0.119,-0.1239,-0.1268,-0.1257,-0.1165,-0.1035,-0.0837,-0.0647,-0.0397,-0.0066,0.0165,0.0404,0.0568,0.0551,0.0569,0.0568,0.044,0.0433,0.0582,0.0518,0,0,0,0,0]}],[{"header":{"parameterUnit":"m.s-1","parameterCategory":2,"la1":30.2991,"la2":30.254,"lo1":-89.0895,"lo2":-89.0444,"dy":0.0017,"dx":0.0017,"nx":28,"ny":28,"refTime":"2023-11-17T03:00:00:Z","depth":"4","parameterNumber":2,"parameterNumberName":"U-component_of_CURRENTS"},"data":[0,0,0,0,0,0,0,0,0,0,0,0,0,0,0,0,0,0,0,0,0,0,0,0,0,0,0,0,0,0,0,0,0,0,0,0,0,0,0,0,0,0,0,0,0,0,0,0,0,0,0,0,0,0,0,0,0,0,-0.1444,-0.1445,0,-0.1516,-0.1517,-0.1518,-0.1559,-0.1559,-0.1559,-0.1559,-0.163,-0.1632,-0.1633,0,0,0,0,0,0,0,0,0,0,0,0,0,-0.1358,-0.1359,-0.1444,-0.1445,-0.1446,-0.1516,-0.1517,-0.1518,-0.1559,-0.1559,-0.1559,-0.156,-0.163,-0.1632,-0.1634,0,0,0,0,0,0,0,0,0,0,0,0,0,-0.1408,-0.1359,-0.1444,-0.1476,-0.1479,-0.1516,-0.1517,-0.1518,-0.1559,-0.1559,-0.1559,-0.156,-0.1629,-0.1631,-0.1634,-0.1642,0,0,-0.1641,-0.1642,0,0,0,0,0,0,0,0,-0.1405,-0.1411,-0.147,-0.1473,-0.1478,-0.153,-0.1513,-0.156,-0.1558,-0.1527,-0.1559,-0.156,-0.1597,-0.1602,-0.1613,-0.1645,-0.1648,-0.1642,-0.1643,-0.1644,-0.1645,0,0,0,0,0,0,0,-0.1401,-0.1408,-0.1471,-0.1471,-0.1476,-0.1492,-0.1499,-0.1522,-0.1558,-0.153,-0.1533,-0.1543,-0.1599,-0.1611,-0.1615,-0.1649,-0.1642,-0.1644,-0.1645,-0.1646,-0.176,-0.1761,0,0,0,0,0,0,-0.1394,-0.1405,-0.1469,-0.1474,-0.1443,-0.1493,-0.1502,-0.1512,-0.1558,-0.1566,-0.1543,-0.1545,-0.1606,-0.1612,-0.1618,-0.17,-0.1644,-0.1647,-0.1648,-0.1758,-0.176,-0.1762,0,0,0,0,0,0,-0.1392,-0.1399,-0.1466,-0.1442,-0.1452,-0.1495,-0.1506,-0.1513,-0.1546,-0.1568,-0.1576,-0.1571,-0.1607,-0.1614,-0.1663,-0.17,-0.1648,-0.165,-0.1756,-0.1759,-0.1761,-0.1818,0,0,0,0,0,0,-0.1389,-0.1398,-0.1413,-0.1441,-0.1453,-0.1504,-0.1506,-0.1514,-0.1551,-0.1555,-0.1595,-0.16,-0.1608,-0.166,-0.1666,-0.1702,-0.1652,-0.1754,-0.1757,-0.176,-0.1814,-0.1822,-0.1829,0,0,0,0,0,-0.1386,-0.1398,-0.1413,-0.1421,-0.1469,-0.1505,-0.1513,-0.1543,-0.1552,-0.1573,-0.1604,-0.16,-0.1682,-0.1663,-0.167,-0.1708,-0.1753,-0.1757,-0.176,-0.1811,-0.1821,-0.1829,0,0,0,0,0,0,-0.1369,-0.1404,-0.1421,-0.1445,-0.1482,-0.1513,-0.1535,-0.1555,-0.1595,-0.1604,-0.1621,-0.1629,-0.1686,-0.1688,-0.1666,-0.1749,-0.1717,-0.1722,-0.1753,-0.1762,-0.177,-0.1773,-0.1654,0,0,0,0,0,-0.1373,-0.139,-0.143,-0.1451,-0.1471,-0.1508,-0.153,-0.1553,-0.1587,-0.1606,-0.1638,-0.1669,-0.1702,-0.1725,-0.1751,-0.1796,-0.1787,-0.1825,-0.1832,-0.1838,-0.1845,-0.1866,-0.1875,-0.1773,-0.1773,-0.1773,0,0,-0.1368,-0.1394,-0.1402,-0.145,-0.1479,-0.1516,-0.1523,-0.1563,-0.1602,-0.1607,-0.1674,-0.1697,-0.1719,-0.1773,-0.1798,-0.1783,-0.1861,-0.1842,-0.1847,-0.1852,-0.187,-0.188,-0.1889,-0.1775,-0.1775,-0.1774,0,0,-0.1369,-0.1398,-0.1417,-0.1451,-0.1504,-0.1532,-0.1549,-0.16,-0.1635,-0.1693,-0.171,-0.1757,-0.1807,-0.1836,-0.1853,-0.1915,-0.1897,-0.1925,-0.1969,-0.1988,-0.1997,-0.2004,-0.1995,-0.2001,-0.193,-0.193,-0.193,0,-0.1367,-0.1401,-0.1429,-0.1464,-0.1502,-0.1541,-0.1583,-0.162,-0.1685,-0.1723,-0.1722,-0.1818,-0.1837,-0.1905,-0.193,-0.1933,-0.193,-0.1933,-0.1997,-0.2004,-0.2011,-0.2,-0.2006,-0.1933,-0.1933,-0.1933,-0.1932,0,-0.1378,-0.1423,-0.1439,-0.1499,-0.1542,-0.1583,-0.1641,-0.1697,-0.1741,-0.1778,-0.1863,-0.1893,-0.1949,-0.1966,-0.1969,-0.2035,-0.2012,-0.2002,-0.1973,-0.2025,-0.201,-0.2015,-0.1938,-0.1937,-0.1936,-0.1935,0,0,-0.1331,-0.1429,-0.1439,-0.1487,-0.1569,-0.1605,-0.1683,-0.1766,-0.1823,-0.1882,-0.1953,-0.2017,-0.2035,-0.2055,-0.207,-0.2094,-0.2134,-0.2074,-0.2073,-0.206,-0.2161,-0.1998,-0.1988,-0.2136,-0.2138,-0.2139,-0.2127,0,-0.134,-0.1413,-0.1465,-0.1548,-0.1596,-0.1672,-0.1744,-0.1823,-0.1886,-0.1961,-0.2008,-0.207,-0.2066,-0.2099,-0.2126,-0.2137,-0.2152,-0.2137,-0.2117,-0.2116,-0.1962,-0.199,-0.2144,-0.2131,-0.2132,-0.2133,-0.2134,0,-0.1333,-0.1393,-0.1475,-0.1598,-0.1627,-0.1685,-0.1815,-0.1883,-0.1989,-0.2039,-0.2106,-0.2133,-0.2196,-0.2172,-0.2213,-0.2204,-0.2191,-0.2186,-0.2185,-0.2017,-0.1963,-0.2072,-0.2142,-0.2142,-0.2141,-0.214,-0.214,0,-0.128,-0.1401,-0.1474,-0.1512,-0.1648,-0.1714,-0.1792,-0.1909,-0.1976,-0.2085,-0.213,-0.22,-0.2233,-0.2245,-0.2231,-0.2232,-0.2246,-0.2241,-0.208,-0.2068,-0.2193,-0.2185,-0.2261,-0.2261,-0.2261,-0.2261,-0.2261,0,-0.1254,-0.1309,-0.1462,-0.1493,-0.1598,-0.1702,-0.1808,-0.1896,-0.2012,-0.2074,-0.216,-0.2194,-0.2254,-0.2263,-0.2248,-0.2162,-0.2256,-0.2086,-0.2057,-0.2215,-0.2211,-0.2195,-0.2188,-0.2261,-0.2261,-0.2261,-0.2261,0,-0.1162,-0.1262,-0.1351,-0.1512,-0.157,-0.164,-0.1803,-0.1867,-0.1992,-0.2071,-0.2105,-0.22,-0.2201,-0.2223,-0.223,-0.2157,-0.2111,-0.2057,-0.221,-0.219,-0.1918,-0.1915,-0.1882,-0.1876,-0.1871,-0.1867,-0.1864,0,-0.1115,-0.1154,-0.1338,-0.1399,-0.1473,-0.1598,-0.1678,-0.1835,-0.1893,-0.2045,-0.2059,-0.2114,-0.2149,-0.2021,-0.2066,-0.2009,-0.1985,-0.1949,-0.195,-0.1905,-0.1882,-0.1885,-0.1888,-0.1856,-0.1855,-0.1853,-0.1852,0,-0.1016,-0.1094,-0.1173,-0.1306,-0.1405,-0.1511,-0.163,-0.1667,-0.183,-0.1948,-0.195,-0.194,-0.1931,-0.1912,-0.187,-0.1837,-0.197,-0.1897,-0.1908,-0.1909,-0.1874,-0.1856,-0.1864,-0.1835,-0.1838,-0.1839,-0.184,0,-0.0934,-0.0973,-0.1093,-0.1204,-0.1323,-0.1399,-0.1481,-0.155,-0.163,-0.1794,-0.1779,-0.1834,-0.1907,-0.182,-0.1788,-0.1732,-0.1711,-0.1659,-0.1682,-0.1701,-0.1644,-0.1573,-0.1414,0,0,0,0,0,-0.084,-0.0885,-0.0983,-0.1105,-0.1217,-0.1291,-0.1441,-0.1525,-0.1675,-0.1623,-0.17,-0.1678,-0.1632,-0.1662,-0.1563,-0.171,-0.1723,-0.1589,-0.1678,-0.1741,-0.1761,-0.171,0,0,0,0,0,0,-0.0777,-0.0853,-0.0938,-0.1004,-0.1062,-0.1172,-0.1265,-0.137,-0.1358,-0.1496,-0.1472,-0.1558,-0.1531,-0.1644,-0.1517,-0.1524,-0.1542,-0.1624,-0.1619,-0.173,-0.1748,-0.1764,-0.1718,0,0,0,0,0]},{"header":{"parameterUnit":"m.s-1","parameterCategory":2,"la1":30.2991,"la2":30.254,"lo1":-89.0895,"lo2":-89.0444,"dy":0.0017,"dx":0.0017,"nx":28,"ny":28,"refTime":"2023-11-17T03:00:00:Z","depth":"4","parameterNumber":3,"parameterNumberName":"V-component_of_CURRENTS"},"data":[0,0,0,0,0,0,0,0,0,0,0,0,0,0,0,0,0,0,0,0,0,0,0,0,0,0,0,0,0,0,0,0,0,0,0,0,0,0,0,0,0,0,0,0,0,0,0,0,0,0,0,0,0,0,0,0,0,0,-0.0109,-0.0109,0,-0.0075,-0.0075,-0.0074,-0.0051,-0.0051,-0.005,-0.005,0.0027,0.0028,0.003,0,0,0,0,0,0,0,0,0,0,0,0,0,-0.0118,-0.0118,-0.0109,-0.0109,-0.0108,-0.0075,-0.0075,-0.0074,-0.0051,-0.0051,-0.005,-0.005,0.0026,0.0028,0.0031,0,0,0,0,0,0,0,0,0,0,0,0,0,-0.0102,-0.0118,-0.0109,-0.0093,-0.0091,-0.0075,-0.0075,-0.0074,-0.0051,-0.0051,-0.005,-0.005,0.0025,0.0028,0.0031,0.0044,0,0,0.004,0.0041,0,0,0,0,0,0,0,0,-0.0103,-0.0102,-0.0096,-0.0094,-0.0092,-0.0067,-0.005,-0.0033,-0.0051,-0.0066,-0.005,-0.005,-0.0001,0.0004,0.001,0.0048,0.0051,0.004,0.0042,0.0043,0.0044,0,0,0,0,0,0,0,-0.0104,-0.0103,-0.0095,-0.0095,-0.0093,-0.0075,-0.0073,-0.0046,-0.0034,-0.0064,-0.0063,-0.0059,0.0,0.0007,0.0012,0.0052,0.004,0.0042,0.0044,0.0045,0.0115,0.0115,0,0,0,0,0,0,-0.0111,-0.0104,-0.0096,-0.0094,-0.0097,-0.0075,-0.0073,-0.0075,-0.0035,-0.0029,-0.006,-0.0059,0.0002,0.0008,0.0015,0.0032,0.0043,0.0045,0.0047,0.0115,0.0115,0.0115,0,0,0,0,0,0,-0.0112,-0.0111,-0.0098,-0.0098,-0.0095,-0.0076,-0.0078,-0.0075,-0.0068,-0.0032,-0.0025,-0.0058,0.0002,0.0011,0.0034,0.0036,0.0047,0.0049,0.0115,0.0115,0.0115,0.0068,0,0,0,0,0,0,-0.0112,-0.0112,-0.0114,-0.0099,-0.0096,-0.0097,-0.0078,-0.0074,-0.0067,-0.0065,-0.0028,-0.0021,0.0003,0.003,0.0037,0.004,0.0052,0.0115,0.0115,0.0115,0.007,0.0067,0.0064,0,0,0,0,0,-0.0113,-0.0119,-0.0115,-0.0114,-0.0101,-0.0097,-0.0094,-0.0078,-0.0067,-0.0071,-0.0043,-0.0022,0.0037,0.0032,0.004,0.0044,0.0114,0.0115,0.0115,0.0071,0.0067,0.0064,0,0,0,0,0,0,-0.0121,-0.0116,-0.0112,-0.0115,-0.0111,-0.0093,-0.0093,-0.0081,-0.0063,-0.0059,-0.0022,-0.0013,0.0007,0.0033,0.0027,0.0066,0.008,0.0082,0.0044,0.0041,0.0038,0.0028,0.0054,0,0,0,0,0,-0.0126,-0.0131,-0.0123,-0.0126,-0.0126,-0.011,-0.0105,-0.0097,-0.0079,-0.0071,-0.0045,-0.0013,0.0015,0.0033,0.0058,0.0079,0.0111,0.0089,0.0087,0.0084,0.0082,0.0133,0.0135,0.0116,0.0116,0.0116,0,0,-0.0126,-0.0127,-0.0127,-0.0128,-0.0122,-0.013,-0.0107,-0.0106,-0.0108,-0.0065,-0.0055,-0.0024,0.0018,0.0039,0.0051,0.0061,0.0105,0.0084,0.0082,0.0082,0.0134,0.0136,0.0137,0.0116,0.0116,0.0116,0,0,-0.0145,-0.0136,-0.0154,-0.0155,-0.0155,-0.0144,-0.0147,-0.0134,-0.0124,-0.0112,-0.0079,-0.0047,-0.001,0.0023,0.0045,0.0046,0.0086,0.0055,0.0039,0.0088,0.009,0.0092,0.0128,0.0134,0.0058,0.0058,0.0058,0,-0.0145,-0.0171,-0.0156,-0.0178,-0.0183,-0.0154,-0.0176,-0.0159,-0.0139,-0.0127,-0.0117,-0.005,-0.0016,0.0023,0.0022,0.004,0.007,0.0044,0.0084,0.0087,0.009,0.0126,0.0133,0.0056,0.0056,0.0056,0.0057,0,-0.0184,-0.0203,-0.0213,-0.0231,-0.0231,-0.0243,-0.0225,-0.0215,-0.0195,-0.0174,-0.0138,-0.0088,-0.0047,-0.0027,-0.0002,0.0037,0.0052,0.007,0.0089,0.0089,0.0127,0.0135,0.0053,0.0054,0.0054,0.0055,0,0,-0.0186,-0.0233,-0.0237,-0.0264,-0.0263,-0.0271,-0.0264,-0.0252,-0.0245,-0.0207,-0.0191,-0.0131,-0.0096,-0.0068,-0.0024,0.0023,0.0068,0.0051,0.0055,0.0081,0.017,0.0154,0.0161,0.0094,0.0095,0.0096,0.0186,0,-0.0222,-0.0289,-0.0291,-0.0336,-0.0367,-0.034,-0.0341,-0.0319,-0.0284,-0.0257,-0.0188,-0.0157,-0.0113,-0.0093,-0.0037,0.0042,0.0088,0.0042,0.0171,0.0175,0.0156,0.017,0.01,0.0192,0.0194,0.0195,0.0196,0,-0.0261,-0.0304,-0.037,-0.0409,-0.0417,-0.043,-0.042,-0.0415,-0.0357,-0.033,-0.027,-0.0215,-0.0138,-0.0106,0.0035,0.0003,0.0079,0.0143,0.0148,0.0155,0.0174,0.0196,0.0211,0.021,0.0209,0.0208,0.0207,0,-0.0294,-0.0353,-0.0414,-0.0428,-0.0462,-0.0475,-0.0476,-0.0437,-0.0434,-0.0369,-0.0351,-0.025,-0.0201,-0.0089,0.0045,0.0042,0.0198,0.0212,0.027,0.027,0.0277,0.0274,0.0308,0.0308,0.0307,0.0307,0.0307,0,-0.0336,-0.0379,-0.0438,-0.0474,-0.053,-0.0524,-0.0551,-0.0531,-0.0498,-0.0487,-0.0392,-0.0351,-0.0193,-0.0084,0.0034,0.0176,0.0194,0.0269,0.0294,0.0254,0.0248,0.0283,0.0279,0.0311,0.031,0.0309,0.0309,0,-0.0361,-0.0404,-0.0478,-0.0536,-0.0556,-0.0591,-0.0619,-0.0627,-0.0585,-0.0564,-0.0548,-0.0422,-0.0274,-0.0117,0.0072,0.0156,0.0295,0.034,0.0278,0.0298,0.0335,0.0328,0.041,0.041,0.0411,0.0411,0.0411,0,-0.0377,-0.0427,-0.053,-0.0579,-0.0609,-0.0659,-0.069,-0.0677,-0.0676,-0.0599,-0.0588,-0.045,-0.0349,-0.0088,0.007,0.0286,0.0315,0.0376,0.0363,0.033,0.0348,0.034,0.0332,0.0411,0.0411,0.0411,0.0411,0,-0.0405,-0.0453,-0.0518,-0.0631,-0.069,-0.0747,-0.0781,-0.0787,-0.0751,-0.0721,-0.0601,-0.0455,-0.029,-0.0087,0.0078,0.0234,0.0331,0.0379,0.038,0.0368,0.0333,0.0348,0.034,0.0412,0.0412,0.0412,0.0412,0,-0.0411,-0.0475,-0.0577,-0.0671,-0.0751,-0.0805,-0.082,-0.08,-0.0792,-0.0695,-0.0654,-0.0457,-0.0342,-0.0114,0.0041,0.0188,0.0223,0.0262,0.0269,0.027,0.02,0.0133,0.0175,0,0,0,0,0,-0.0404,-0.0497,-0.0604,-0.0713,-0.0791,-0.0836,-0.0868,-0.0864,-0.0828,-0.0749,-0.0696,-0.0533,-0.0277,-0.0161,-0.0015,0.0025,0.0227,0.0196,0.027,0.0416,0.0415,0.0355,0,0,0,0,0,0,-0.0407,-0.0514,-0.061,-0.0726,-0.0795,-0.0872,-0.0892,-0.0867,-0.081,-0.0746,-0.0604,-0.0515,-0.0267,-0.0359,-0.0017,0.0027,0.0089,0.032,0.0323,0.0417,0.0416,0.0415,0.0352,0,0,0,0,0]}]]